#timestamp,LO_Frequency,Hit,StdDev 
1691722815.6,286047002.3,N
1691722835.4,286047002.4,N
1691722855.3,286047001.9,N
1691722875.1,286047002.6,N
1691722876.0,286047002.6,N
1691722895.8,286047001.9,N
1691722915.7,286047002.6,N
1691722935.5,286047002.2,N
1691722955.3,286047002.6,N
1691722975.2,286047002.5,N
1691722995.0,286047002.2,N
1691722995.9,286047002.2,N
1691723015.8,286047002.5,N
1691723035.6,286047002.0,N
1691723055.4,286047004.3,Y
1691723075.3,286047000.4,P
1691723095.1,286046999.8,N
1691723115.9,286047000.3,N
1691723135.7,286046999.7,N
1691723155.5,286047002.4,N
1691723175.4,286047001.7,N
1691723195.2,286047002.0,N
1691723215.0,286047001.8,N
1691723215.9,286047001.8,N
1691723235.8,286047001.6,N
1691723255.6,286047002.5,N
1691723275.5,286047001.9,N
1691723295.3,286047001.5,N
1691723315.1,286047003.9,Y
1691723335.9,286047002.2,P
1691723355.7,286047001.6,P
1691723375.6,286047002.2,P
1691723395.4,286047002.1,Y
1691723415.2,286047000.2,P
1691723435.1,286046998.6,N
1691723436.0,286046998.6,N
1691723455.8,286046999.0,N
1691723475.6,286046996.8,N
1691723495.5,286046997.6,N
1691723515.3,286046997.5,N
1691723535.2,286046997.6,N
1691723555.9,286046997.3,N
1691723575.7,286046999.1,N
1691723595.6,286046998.3,N
1691723615.4,286046998.5,N
1691723635.2,286046998.6,N
1691723655.1,286046999.2,N
1691723656.0,286046999.2,N
1691723675.8,286046998.7,N
1691723695.7,286046998.5,N
1691723715.5,286046998.9,N
1691723735.3,286047001.0,N
1691723755.2,286046998.5,N
1691723775.0,286047001.2,N
1691723775.9,286047001.2,N
1691723795.7,286046996.6,N
1691723815.6,286046997.6,N
1691723835.4,286046996.8,N
1691723855.3,286046997.8,N
1691723875.1,286046997.6,N
1691723876.0,286046997.6,N
1691723895.8,286046997.6,N
1691723915.7,286046997.8,N
1691723935.5,286046995.0,Y
1691723955.4,286046996.5,P
1691723975.2,286046998.7,N
1691723995.0,286046999.0,N
1691723995.9,286046999.0,N
1691724015.8,286046999.2,N
1691724035.6,286046996.8,Y
1691724055.4,286046996.6,P
1691724075.3,286046997.6,N
1691724095.1,286046996.8,P
1691724115.9,286046998.7,N
1691724135.7,286047000.8,N
1691724155.5,286047000.4,N
1691724175.4,286047000.2,N
1691724195.2,286047002.8,N
1691724215.0,286047001.9,N
1691724215.9,286047001.9,N
1691724235.8,286047004.4,N
1691724255.6,286047001.3,N
1691724275.5,286047003.7,N
1691724295.3,286047004.0,N
1691724315.1,286047004.2,N
1691724335.9,286047001.4,N
1691724355.7,286047001.6,N
1691724375.5,286047002.7,N
1691724395.4,286047002.4,N
1691724415.2,286047002.6,N
1691724435.1,286047001.5,N
1691724436.0,286047001.5,N
1691724455.8,286047000.3,N
1691724475.6,286047001.6,N
1691724495.5,286047001.5,N
1691724515.3,286047001.3,N
1691724535.1,286047003.7,N
1691724555.9,286047004.0,N
1691724575.7,286047004.4,N
1691724595.6,286047003.2,N
1691724615.4,286047001.7,N
1691724635.2,286047004.4,N
1691724655.1,286047003.7,N
1691724656.0,286047003.7,N
1691724675.8,286047001.4,N
1691724695.7,286047004.4,Y
1691724715.5,286047000.2,P
1691724735.3,286046999.7,N
1691724755.2,286047002.6,N
1691724775.0,286047001.8,N
1691724775.9,286047001.8,N
1691724795.7,286047002.2,N
1691724815.6,286047000.1,N
1691724835.4,286046999.9,N
1691724855.3,286047000.9,N
1691724875.1,286047001.2,N
1691724876.0,286047001.2,N
1691724895.8,286047001.0,N
1691724915.7,286047000.6,N
1691724935.5,286046998.4,N
1691724955.3,286047000.9,N
1691724975.2,286047000.6,N
1691724995.0,286047000.2,N
1691724995.9,286047000.2,N
1691725015.8,286047000.9,N
1691725035.6,286047002.8,N
1691725055.5,286047002.1,N
1691725105.3,286047002.1,E
1691725115.2,286047002.8,N
1691725135.1,286047001.1,P
1691725136.0,286047001.1,N
1691725155.8,286047000.6,N
1691725175.7,286047000.7,N
1691725195.5,286046999.4,N
1691725215.3,286046996.8,Y
1691725235.2,286046996.9,P
1691725255.0,286046999.3,N
1691725255.9,286046999.3,N
1691725275.7,286046998.2,N
1691725295.6,286047000.0,N
1691725315.4,286047000.7,N
1691725335.3,286047001.2,N
1691725355.1,286046998.5,N
1691725356.0,286046998.5,N
1691725375.8,286047000.4,N
1691725395.7,286047001.0,N
1691725415.5,286046999.9,N
1691725435.3,286047001.2,N
1691725455.2,286047000.7,N
1691725475.0,286046996.6,N
1691725475.9,286046996.6,N
1691725495.8,286046999.3,N
1691725515.6,286046998.7,N
1691725535.4,286046999.1,N
1691725555.3,286046998.1,N
1691725575.1,286046999.8,N
1691725595.9,286046998.5,N
1691725615.7,286046998.4,N
1691725635.5,286047000.8,N
1691725655.4,286046999.3,N
1691725675.2,286046996.5,N
1691725695.0,286046999.5,N
1691725695.9,286046999.5,N
1691725715.8,286046998.6,N
1691725735.6,286046999.0,N
1691725755.4,286046999.1,N
1691725775.3,286046997.7,N
1691725795.1,286046996.5,N
1691725815.9,286046998.5,N
1691725835.7,286047001.0,N
1691725855.5,286046999.1,N
1691725875.4,286046998.9,N
1691725895.2,286046999.2,N
1691725915.1,286046999.3,N
1691725916.0,286046999.3,N
1691725935.8,286046999.4,N
1691725955.6,286046998.4,N
1691725975.5,286046998.3,N
1691725995.3,286046998.2,N
1691726015.1,286046999.4,N
1691726035.9,286046997.3,N
1691726055.7,286046997.6,N
1691726075.6,286046996.8,Y
1691726095.4,286046998.5,P
1691726115.2,286047000.0,N
1691726135.1,286047002.2,P
1691726136.0,286047002.2,N
1691726155.8,286047001.9,N
1691726175.7,286047001.9,N
1691726195.5,286047001.7,N
1691726215.3,286047002.7,N
1691726235.2,286047002.3,N
1691726255.9,286047002.0,N
1691726275.7,286047002.1,N
1691726295.6,286047002.5,N
1691726315.4,286047004.3,Y
1691726335.3,286046999.7,P
1691726355.1,286047002.4,N
1691726356.0,286047002.4,N
1691726375.8,286047002.7,N
1691726395.7,286047002.1,N
